Time,TemperatureF,DewpointF,PressureIn,WindDirection,WindDirectionDegrees,WindSpeedMPH,WindSpeedGustMPH,Humidity,HourlyPrecipIn,Conditions,Clouds,dailyrainin,SoftwareType,DateUTC
2013-06-13 00:03:00,76.2,74.0,30.01,SSE,167,0.0,0.0,94,0.00,,,0.00,weatherlink.com 1.10,2013-06-13 05:03:00,
2013-06-13 00:18:00,76.3,75.0,30.00,SSE,167,0.0,0.0,95,0.00,,,0.00,weatherlink.com 1.10,2013-06-13 05:18:00,
2013-06-13 00:33:00,76.0,75.0,30.00,SSE,167,0.0,0.0,95,0.00,,,0.00,weatherlink.com 1.10,2013-06-13 05:33:00,
2013-06-13 00:48:00,75.7,75.0,30.00,SSE,167,0.0,0.0,96,0.00,,,0.00,weatherlink.com 1.10,2013-06-13 05:48:00,
2013-06-13 01:03:00,75.7,75.0,30.00,SSE,167,0.0,0.0,96,0.00,,,0.00,weatherlink.com 1.10,2013-06-13 06:03:00,
2013-06-13 01:18:00,75.7,75.0,29.99,SSE,167,0.0,0.0,96,0.00,,,0.00,weatherlink.com 1.10,2013-06-13 06:18:00,
2013-06-13 01:33:00,75.3,74.0,29.99,SSE,167,0.0,0.0,96,0.00,,,0.00,weatherlink.com 1.10,2013-06-13 06:33:00,
2013-06-13 01:48:00,75.0,74.0,29.99,SSE,167,0.0,0.0,97,0.00,,,0.00,weatherlink.com 1.10,2013-06-13 06:48:00,
2013-06-13 02:03:00,74.8,74.0,29.99,SSE,167,0.0,0.0,97,0.00,,,0.00,weatherlink.com 1.10,2013-06-13 07:03:00,
2013-06-13 02:18:00,74.7,74.0,29.98,SSE,167,0.0,0.0,98,0.00,,,0.00,weatherlink.com 1.10,2013-06-13 07:18:00,
2013-06-13 02:33:00,74.6,74.0,29.98,SSE,167,0.0,0.0,98,0.00,,,0.00,weatherlink.com 1.10,2013-06-13 07:33:00,
2013-06-13 02:48:00,74.6,74.0,29.98,SSE,167,0.0,0.0,98,0.00,,,0.00,weatherlink.com 1.10,2013-06-13 07:48:00,
2013-06-13 03:03:00,74.5,74.0,29.98,SSE,167,0.0,0.0,98,0.00,,,0.00,weatherlink.com 1.10,2013-06-13 08:03:00,
2013-06-13 03:18:00,74.2,74.0,29.98,SSE,167,0.0,0.0,98,0.00,,,0.00,weatherlink.com 1.10,2013-06-13 08:18:00,
2013-06-13 03:33:00,74.2,74.0,29.98,SSE,167,0.0,0.0,98,0.00,,,0.00,weatherlink.com 1.10,2013-06-13 08:33:00,
2013-06-13 03:48:00,74.1,74.0,29.98,South,169,0.0,0.0,99,0.00,,,0.00,weatherlink.com 1.10,2013-06-13 08:48:00,
2013-06-13 04:04:00,74.1,74.0,29.98,South,169,0.0,0.0,99,0.00,,,0.00,weatherlink.com 1.10,2013-06-13 09:04:00,
2013-06-13 04:19:00,74.2,74.0,29.98,South,169,0.0,0.0,99,0.00,,,0.00,weatherlink.com 1.10,2013-06-13 09:19:00,
2013-06-13 04:34:00,74.4,74.0,29.98,South,184,0.0,0.0,99,0.00,,,0.00,weatherlink.com 1.10,2013-06-13 09:34:00,
2013-06-13 04:49:00,74.7,74.0,29.98,South,185,0.0,0.0,99,0.00,,,0.00,weatherlink.com 1.10,2013-06-13 09:49:00,
2013-06-13 05:04:00,75.0,75.0,29.98,South,185,0.0,0.0,100,0.00,,,0.00,weatherlink.com 1.10,2013-06-13 10:04:00,
2013-06-13 05:19:00,75.0,75.0,29.98,South,190,0.0,0.0,99,0.00,,,0.00,weatherlink.com 1.10,2013-06-13 10:19:00,
2013-06-13 05:34:00,75.0,75.0,29.99,South,190,0.0,0.0,100,0.00,,,0.00,weatherlink.com 1.10,2013-06-13 10:34:00,
2013-06-13 05:49:00,75.0,75.0,29.99,South,191,0.0,1.0,100,0.00,,,0.00,weatherlink.com 1.10,2013-06-13 10:49:00,
2013-06-13 06:04:00,75.1,75.0,30.00,WSW,257,0.0,0.0,100,0.00,,,0.00,weatherlink.com 1.10,2013-06-13 11:04:00,
2013-06-13 06:19:00,75.1,75.0,30.01,SW,218,0.0,1.0,100,0.00,,,0.00,weatherlink.com 1.10,2013-06-13 11:19:00,
2013-06-13 06:34:00,75.3,75.0,30.01,SW,218,0.0,0.0,100,0.00,,,0.00,weatherlink.com 1.10,2013-06-13 11:34:00,
2013-06-13 06:49:00,75.9,76.0,30.01,SW,217,0.0,0.0,100,0.00,,,0.00,weatherlink.com 1.10,2013-06-13 11:49:00,
2013-06-13 07:04:00,76.2,76.0,30.01,SW,236,0.0,0.0,99,0.00,,,0.00,weatherlink.com 1.10,2013-06-13 12:04:00,
2013-06-13 07:19:00,76.8,77.0,30.02,SW,236,0.0,0.0,99,0.00,,,0.00,weatherlink.com 1.10,2013-06-13 12:19:00,
2013-06-13 07:34:00,77.4,77.0,30.02,WSW,257,0.0,0.0,98,0.00,,,0.00,weatherlink.com 1.10,2013-06-13 12:34:00,
2013-06-13 07:49:00,78.6,78.0,30.02,West,272,0.0,2.0,97,0.00,,,0.00,weatherlink.com 1.10,2013-06-13 12:49:00,
2013-06-13 08:04:00,80.6,79.0,30.03,NW,307,0.0,3.0,93,0.00,,,0.00,weatherlink.com 1.10,2013-06-13 13:04:00,
2013-06-13 08:19:00,82.0,79.0,30.03,WNW,287,1.0,2.0,89,0.00,,,0.00,weatherlink.com 1.10,2013-06-13 13:19:00,
2013-06-13 08:34:00,83.1,78.0,30.03,WNW,295,1.0,6.0,85,0.00,,,0.00,weatherlink.com 1.10,2013-06-13 13:34:00,
2013-06-13 08:49:00,84.8,79.0,30.03,SSW,200,0.0,3.0,82,0.00,,,0.00,weatherlink.com 1.10,2013-06-13 13:49:00,
2013-06-13 09:04:00,85.4,79.0,30.03,WSW,242,1.0,4.0,81,0.00,,,0.00,weatherlink.com 1.10,2013-06-13 14:04:00,
2013-06-13 09:19:00,86.0,79.0,30.02,SW,232,0.0,3.0,79,0.00,,,0.00,weatherlink.com 1.10,2013-06-13 14:19:00,
2013-06-13 09:34:00,87.2,80.0,30.02,NW,325,1.0,4.0,78,0.00,,,0.00,weatherlink.com 1.10,2013-06-13 14:34:00,
2013-06-13 09:49:00,87.9,80.0,30.02,WSW,257,5.0,5.0,76,0.00,,,0.00,weatherlink.com 1.10,2013-06-13 14:49:00,
2013-06-13 10:04:00,88.7,79.0,30.02,WNW,286,0.0,3.0,74,0.00,,,0.00,weatherlink.com 1.10,2013-06-13 15:04:00,
2013-06-13 10:19:00,89.2,80.0,30.02,WNW,290,1.0,4.0,74,0.00,,,0.00,weatherlink.com 1.10,2013-06-13 15:19:00,
2013-06-13 10:34:00,88.6,79.0,30.02,NW,316,1.0,4.0,74,0.00,,,0.00,weatherlink.com 1.10,2013-06-13 15:34:00,
2013-06-13 10:49:00,89.4,79.0,30.02,NW,325,1.0,5.0,72,0.00,,,0.00,weatherlink.com 1.10,2013-06-13 15:49:00,
2013-06-13 11:04:00,90.1,78.0,30.01,NW,316,1.0,4.0,68,0.00,,,0.00,weatherlink.com 1.10,2013-06-13 16:04:00,
2013-06-13 11:19:00,89.9,79.0,30.01,NW,314,2.0,8.0,70,0.00,,,0.00,weatherlink.com 1.10,2013-06-13 16:19:00,
2013-06-13 11:34:00,90.9,79.0,30.00,West,278,2.0,5.0,68,0.00,,,0.00,weatherlink.com 1.10,2013-06-13 16:34:00,
2013-06-13 11:49:00,91.4,79.0,30.00,WNW,290,1.0,7.0,66,0.00,,,0.00,weatherlink.com 1.10,2013-06-13 16:49:00,
2013-06-13 12:04:00,90.6,79.0,30.00,WNW,300,0.0,6.0,68,0.00,,,0.00,weatherlink.com 1.10,2013-06-13 17:04:00,
2013-06-13 12:19:00,91.2,78.0,29.99,WNW,291,3.0,5.0,66,0.00,,,0.00,weatherlink.com 1.10,2013-06-13 17:19:00,
2013-06-13 12:35:00,92.9,79.0,29.98,SE,135,1.0,8.0,65,0.00,,,0.00,weatherlink.com 1.10,2013-06-13 17:35:00,
2013-06-13 12:50:00,93.0,78.0,29.98,West,271,5.0,10.0,61,0.00,,,0.00,weatherlink.com 1.10,2013-06-13 17:50:00,
2013-06-13 13:05:00,92.7,78.0,29.97,WNW,283,0.0,4.0,62,0.00,,,0.00,weatherlink.com 1.10,2013-06-13 18:05:00,
2013-06-13 13:20:00,91.9,79.0,29.97,WSW,243,0.0,9.0,66,0.00,,,0.00,weatherlink.com 1.10,2013-06-13 18:20:00,
2013-06-13 13:35:00,93.4,81.0,29.96,WNW,295,1.0,3.0,67,0.00,,,0.00,weatherlink.com 1.10,2013-06-13 18:35:00,
2013-06-13 13:50:00,92.8,78.0,29.95,South,190,1.0,4.0,63,0.00,,,0.00,weatherlink.com 1.10,2013-06-13 18:50:00,
2013-06-13 14:05:00,93.7,79.0,29.95,West,271,0.0,4.0,63,0.00,,,0.00,weatherlink.com 1.10,2013-06-13 19:05:00,
2013-06-13 14:20:00,94.6,79.0,29.94,NW,322,1.0,9.0,60,0.00,,,0.00,weatherlink.com 1.10,2013-06-13 19:20:00,
2013-06-13 14:35:00,94.3,80.0,29.93,NNW,333,0.0,5.0,64,0.00,,,0.00,weatherlink.com 1.10,2013-06-13 19:35:00,
2013-06-13 14:50:00,94.4,79.0,29.93,West,269,1.0,3.0,62,0.00,,,0.00,weatherlink.com 1.10,2013-06-13 19:50:00,
2013-06-13 15:05:00,94.9,80.0,29.93,South,174,3.0,5.0,62,0.00,,,0.00,weatherlink.com 1.10,2013-06-13 20:05:00,
2013-06-13 15:20:00,94.6,81.0,29.92,WNW,298,2.0,3.0,64,0.00,,,0.00,weatherlink.com 1.10,2013-06-13 20:20:00,
2013-06-13 15:35:00,95.8,80.0,29.92,SSW,207,1.0,4.0,61,0.00,,,0.00,weatherlink.com 1.10,2013-06-13 20:35:00,
2013-06-13 15:50:00,94.3,79.0,29.91,NE,52,0.0,8.0,62,0.00,,,0.00,weatherlink.com 1.10,2013-06-13 20:50:00,
2013-06-13 16:05:00,94.1,79.0,29.91,WNW,298,1.0,7.0,62,0.00,,,0.00,weatherlink.com 1.10,2013-06-13 21:05:00,
2013-06-13 16:20:00,93.8,77.0,29.91,WSW,257,1.0,5.0,59,0.00,,,0.00,weatherlink.com 1.10,2013-06-13 21:20:00,
2013-06-13 16:35:00,93.4,78.0,29.90,SSE,158,8.0,8.0,61,0.00,,,0.00,weatherlink.com 1.10,2013-06-13 21:35:00,
2013-06-13 16:50:00,93.5,77.0,29.90,SSE,165,1.0,7.0,58,0.00,,,0.00,weatherlink.com 1.10,2013-06-13 21:50:00,
2013-06-13 17:05:00,93.3,76.0,29.89,WSW,248,0.0,4.0,57,0.00,,,0.00,weatherlink.com 1.10,2013-06-13 22:05:00,
2013-06-13 17:20:00,93.3,75.0,29.89,SW,227,0.0,3.0,55,0.00,,,0.00,weatherlink.com 1.10,2013-06-13 22:20:00,
2013-06-13 17:35:00,92.7,74.0,29.89,South,173,1.0,6.0,54,0.00,,,0.00,weatherlink.com 1.10,2013-06-13 22:35:00,
2013-06-13 17:50:00,92.6,74.0,29.88,WSW,248,0.0,4.0,54,0.00,,,0.00,weatherlink.com 1.10,2013-06-13 22:50:00,
2013-06-13 18:05:00,92.6,74.0,29.87,WNW,293,1.0,2.0,54,0.00,,,0.00,weatherlink.com 1.10,2013-06-13 23:05:00,
2013-06-13 18:20:00,92.2,73.0,29.87,WSW,249,0.0,2.0,54,0.00,,,0.00,weatherlink.com 1.10,2013-06-13 23:20:00,
2013-06-13 18:35:00,91.3,73.0,29.87,West,274,0.0,5.0,56,0.00,,,0.00,weatherlink.com 1.10,2013-06-13 23:35:00,
2013-06-13 18:50:00,91.3,74.0,29.87,WSW,255,0.0,0.0,58,0.00,,,0.00,weatherlink.com 1.10,2013-06-13 23:50:00,
2013-06-13 19:05:00,90.5,74.0,29.87,NW,310,0.0,0.0,59,0.00,,,0.00,weatherlink.com 1.10,2013-06-14 00:05:00,
2013-06-13 19:20:00,88.3,74.0,29.87,NW,311,0.0,0.0,63,0.00,,,0.00,weatherlink.com 1.10,2013-06-14 00:20:00,
2013-06-13 19:35:00,86.5,73.0,29.87,NW,311,0.0,0.0,65,0.00,,,0.00,weatherlink.com 1.10,2013-06-14 00:35:00,
2013-06-13 19:50:00,84.2,73.0,29.87,NW,310,0.0,0.0,68,0.00,,,0.00,weatherlink.com 1.10,2013-06-14 00:50:00,
2013-06-13 20:05:00,82.7,72.0,29.86,NW,311,0.0,0.0,70,0.00,,,0.00,weatherlink.com 1.10,2013-06-14 01:05:00,
2013-06-13 20:20:00,81.5,72.0,29.87,NW,310,0.0,0.0,73,0.00,,,0.00,weatherlink.com 1.10,2013-06-14 01:20:00,
2013-06-13 20:35:00,80.5,72.0,29.87,NW,310,0.0,0.0,75,0.00,,,0.00,weatherlink.com 1.10,2013-06-14 01:35:00,
2013-06-13 20:51:00,79.9,73.0,29.86,NW,311,0.0,0.0,79,0.00,,,0.00,weatherlink.com 1.10,2013-06-14 01:51:00,
2013-06-13 21:06:00,79.2,74.0,29.86,NW,310,0.0,0.0,84,0.00,,,0.00,weatherlink.com 1.10,2013-06-14 02:06:00,
2013-06-13 21:21:00,78.6,74.0,29.86,NW,310,0.0,0.0,85,0.00,,,0.00,weatherlink.com 1.10,2013-06-14 02:21:00,
2013-06-13 21:36:00,77.9,74.0,29.87,NW,310,0.0,0.0,88,0.00,,,0.00,weatherlink.com 1.10,2013-06-14 02:36:00,
2013-06-13 21:51:00,77.7,75.0,29.87,NW,310,0.0,0.0,90,0.00,,,0.00,weatherlink.com 1.10,2013-06-14 02:51:00,
2013-06-13 22:06:00,77.4,75.0,29.87,NW,310,0.0,0.0,92,0.00,,,0.00,weatherlink.com 1.10,2013-06-14 03:06:00,
2013-06-13 22:21:00,77.3,75.0,29.88,NW,311,0.0,0.0,93,0.00,,,0.00,weatherlink.com 1.10,2013-06-14 03:21:00,
2013-06-13 22:36:00,77.5,75.0,29.89,NW,310,0.0,0.0,93,0.00,,,0.00,weatherlink.com 1.10,2013-06-14 03:36:00,
2013-06-13 22:51:00,77.3,75.0,29.88,NW,311,0.0,0.0,93,0.00,,,0.00,weatherlink.com 1.10,2013-06-14 03:51:00,
2013-06-13 23:06:00,76.9,75.0,29.88,NW,311,0.0,0.0,94,0.00,,,0.00,weatherlink.com 1.10,2013-06-14 04:06:00,
2013-06-13 23:21:00,76.4,75.0,29.88,NW,311,0.0,0.0,94,0.00,,,0.00,weatherlink.com 1.10,2013-06-14 04:21:00,
2013-06-13 23:36:00,76.0,75.0,29.88,NW,311,0.0,0.0,95,0.00,,,0.00,weatherlink.com 1.10,2013-06-14 04:36:00,
2013-06-13 23:51:00,76.1,75.0,29.89,NW,311,0.0,0.0,96,0.00,,,0.00,weatherlink.com 1.10,2013-06-14 04:51:00,